Temp
70 70 71 71 74 73 72 72 72 74 74 76 77 76 75 77 76 75 72 78 80 82 79 79 73 76 81 82 82 81 81 82 81 80 80 80 78 80 79 78 77 77 77
70 70 70 71 70 70 71 72 72 74 74 76 78 78 77 77 77 76 73 72 79 79 80 80 79 79 81 82 83 82 81 80 81 79 79 79 79 78 79 78 77 77 77
70 69 68 68 69 69 71 71 72 73 74 76 76 77 78 78 79 77 76 73 75 80 80 81 77 77 80 82 84 82 80 81 80 80 79 79 79 79 77 78 78 78 77
71 69 68 68 69 70 71 71 70 72 72 74 73 74 75 76 76 76 76 73 75 74 77 78 77 79 81 82 84 82 81 81 80 80 79 79 79 79 78 78 77 77 77
72 68 67 67 68 69 70 70 70 70 70 73 74 73 74 72 74 76 74 73 72 73 73 77 78 78 81 82 83 82 82 81 80 79 79 79 78 78 77 77 77 77 77
72 68 67 67 68 68 68 70 70 69 69 69 78 74 72 72 69 69 72 74 74 73 72 75 72 73 77 79 82 82 82 81 80 79 79 79 78 77 77 77 76 76 76
72 68 66 67 68 68 69 71 70 69 67 68 68 66 68 69 69 68 70 70 72 73 73 72 71 72 73 78 81 81 80 80 80 80 79 78 78 77 77 76 76 76 76
73 71 68 68 69 68 68 70 70 66 66 67 65 62 62 66 68 70 69 72 70 70 72 73 73 74 73 73 75 79 78 79 80 80 79 79 78 77 77 76 75 76 75
75 72 69 68 69 67 67 68 69 68 66 66 66 66 62 62 61 68 68 68 69 69 70 70 74 75 73 73 75 75 76 76 79 80 80 79 78 77 77 76 76 75 75
73 73 71 69 70 68 67 69 71 68 66 65 65 68 66 64 61 63 68 67 69 70 70 71 72 74 73 72 75 75 74 75 76 78 80 80 79 78 78 77 76 75 75
73 73 72 71 71 70 70 71 72 69 68 66 66 65 65 65 65 63 63 67 69 70 74 73 72 72 72 72 71 73 74 73 74 75 75 76 77 79 79 78 77 77 76
72 73 73 72 71 71 72 73 73 72 70 69 66 66 66 66 65 64 63 64 65 70 72 73 73 71 72 72 75 74 73 72 71 71 71 72 73 74 76 79 79 78 77
71 73 72 71 71 72 73 73 72 72 72 71 69 68 69 68 69 67 65 65 65 68 69 71 71 72 74 70 70 72 71 70 69 68 69 70 70 71 72 74 77 79 79
72 73 73 72 73 74 74 74 72 72 72 72 71 70 70 70 70 70 69 67 66 66 67 70 71 71 71 70 70 72 68 68 68 67 67 67 68 70 71 72 73 75 78
73 72 73 73 72 74 74 73 73 72 72 72 71 71 70 71 70 71 70 70 67 65 65 69 69 71 71 70 71 68 66 68 67 66 66 66 67 68 69 70 72 74 73
72 71 71 72 73 72 74 73 72 72 72 72 73 72 70 70 70 71 70 70 69 67 65 67 70 70 71 72 71 67 67 67 66 65 65 65 66 66 67 68 68 69 70
72 71 71 71 72 72 74 72 72 72 72 71 71 71 72 72 71 71 71 70 70 68 66 69 70 71 70 68 67 66 67 65 63 65 65 64 64 65 65 65 66 67 67
71 71 71 72 72 72 73 72 72 74 72 72 72 71 71 74 71 70 70 70 70 69 68 67 68 69 70 69 66 65 68 69 65 65 64 63 63 63 62 62 62 62 63
71 71 70 70 72 73 72 72 72 73 72 72 72 72 72 71 70 70 70 69 70 71 69 68 68 68 69 68 65 66 65 63 66 65 64 63 62 62 61 60 59 59 58
72 72 72 72 72 72 72 73 73 72 72 72 73 72 72 71 71 71 70 70 69 69 68 68 67 67 68 70 67 63 62 62 61 69 65 63 63 63 62 61 60 59 57
74 73 72 72 72 72 73 72 72 72 72 72 72 72 73 73 72 70 70 70 68 68 67 67 67 66 66 67 68 67 63 62 60 61 60 58 59 57 58 60 61 60 58
72 72 71 72 71 73 70 69 70 70 71 71 70 71 72 71 69 67 67 68 68 67 67 66 66 65 66 66 66 66 67 65 63 62 59 59 60 59 60 60 61 59 58
71 71 71 71 71 69 65 65 68 69 69 69 69 69 71 69 65 66 67 66 65 65 66 68 67 65 65 66 65 65 65 65 65 62 60 60 62 57 59 61 60 59 58
69 68 68 69 66 64 62 62 65 68 67 64 63 64 64 63 63 62 66 65 62 60 61 66 63 61 61 61 63 65 64 64 61 61 60 58 58 58 60 60 61 60 58
66 65 66 66 64 61 60 60 62 67 63 60 60 60 61 61 59 60 67 63 60 59 61 61 61 61 60 60 62 65 62 63 62 58 59 60 59 58 59 57 59 58 57
64 63 61 61 60 59 57 58 61 66 61 61 61 60 59 57 56 56 64 62 61 61 62 61 60 60 59 58 59 58 60 59 59 57 58 60 59 56 53 56 53 53 53
MSLP
1018.38 1018.49 1018.42 1018.33 1018.26 1018.21 1017.93 1017.76 1017.73 1017.52 1017.60 1017.31 1017.09 1017.16 1017.17 1017.24 1017.30 1017.56 1018.03 1018.53 1018.52 1018.87 1018.74 1018.30 1017.86 1018.70 1018.18 1017.52 1016.76 1016.71 1016.46 1016.22 1016.25 1016.31 1016.24 1016.08 1015.90 1015.97 1015.80 1015.76 1015.76 1015.67 1015.74
1018.30 1018.46 1018.44 1018.37 1018.46 1018.12 1017.73 1017.62 1017.53 1017.52 1017.55 1017.07 1016.81 1016.95 1016.89 1017.17 1017.46 1017.78 1018.01 1018.30 1018.37 1018.12 1017.65 1017.20 1017.25 1017.69 1017.76 1017.05 1016.54 1016.59 1016.59 1016.22 1016.32 1016.39 1016.38 1016.24 1016.15 1015.93 1015.82 1015.83 1015.84 1015.93 1016.00
1018.23 1018.42 1018.55 1018.58 1018.51 1018.19 1017.86 1017.62 1017.42 1017.42 1017.20 1017.17 1017.13 1017.03 1016.85 1017.22 1017.38 1017.56 1017.72 1017.93 1017.85 1017.69 1017.28 1016.52 1016.76 1017.06 1017.57 1017.00 1016.36 1016.61 1016.58 1016.41 1016.32 1016.42 1016.46 1016.30 1016.28 1016.17 1016.03 1016.06 1016.03 1016.07 1016.09
1018.11 1018.24 1018.37 1018.64 1018.48 1018.16 1017.83 1017.82 1017.83 1017.67 1017.38 1017.07 1017.58 1017.48 1017.64 1017.52 1017.73 1017.80 1017.80 1017.63 1017.26 1018.00 1018.00 1017.80 1016.51 1016.36 1016.90 1016.56 1016.25 1016.53 1016.68 1016.44 1016.27 1016.30 1016.44 1016.40 1016.22 1016.26 1016.23 1016.27 1016.26 1016.25 1016.15
1018.38 1018.41 1018.46 1018.69 1018.32 1018.25 1018.16 1018.20 1018.20 1017.76 1017.59 1017.53 1017.76 1017.84 1017.95 1018.18 1017.95 1017.93 1017.79 1017.47 1017.14 1017.92 1017.59 1016.64 1016.03 1016.22 1016.67 1016.65 1016.37 1016.51 1016.61 1016.48 1016.29 1016.27 1016.36 1016.46 1016.31 1016.29 1016.22 1016.28 1016.36 1016.43 1016.41
1018.38 1018.41 1018.50 1018.57 1018.51 1018.58 1018.67 1018.45 1018.19 1018.14 1018.14 1018.09 1018.06 1017.99 1018.00 1018.24 1017.84 1017.84 1017.34 1017.06 1016.91 1017.06 1016.62 1015.65 1015.82 1016.36 1016.54 1016.71 1016.48 1016.61 1016.53 1016.53 1016.28 1016.27 1016.30 1016.31 1016.26 1016.19 1016.23 1016.17 1016.23 1016.41 1016.59
1018.32 1018.22 1018.62 1018.70 1018.54 1018.63 1018.80 1018.72 1018.37 1018.50 1018.68 1018.65 1018.88 1018.58 1018.42 1017.85 1017.95 1017.90 1017.38 1017.25 1017.07 1016.78 1016.45 1016.52 1016.52 1016.48 1016.53 1016.61 1016.52 1016.80 1016.53 1016.48 1016.22 1016.08 1016.14 1016.19 1016.13 1016.05 1016.13 1016.17 1016.30 1016.48 1016.65
1018.16 1018.30 1018.42 1018.72 1018.41 1018.65 1018.72 1018.59 1018.59 1019.02 1019.13 1019.03 1019.42 1019.53 1019.32 1018.92 1018.14 1017.92 1018.19 1017.56 1017.04 1016.70 1016.79 1016.69 1016.53 1016.12 1016.29 1016.57 1016.68 1016.88 1016.76 1016.63 1016.27 1016.08 1016.07 1016.26 1016.28 1016.18 1016.22 1016.28 1016.41 1016.56 1016.87
1018.04 1018.10 1018.41 1018.56 1018.32 1018.44 1018.70 1018.53 1018.56 1018.82 1019.17 1019.29 1019.36 1019.34 1019.75 1019.53 1019.12 1018.03 1017.90 1017.73 1017.13 1016.84 1016.80 1017.03 1016.71 1016.36 1016.64 1016.90 1017.13 1017.02 1016.99 1016.87 1016.35 1016.16 1016.21 1016.29 1016.29 1016.28 1016.32 1016.43 1016.53 1016.55 1016.66
1017.98 1018.10 1018.25 1018.50 1018.40 1018.44 1018.56 1018.49 1018.58 1018.56 1018.79 1019.64 1019.52 1019.18 1019.16 1019.45 1019.55 1019.20 1017.78 1017.70 1016.97 1016.95 1017.04 1017.04 1016.68 1016.83 1016.83 1017.24 1017.29 1017.12 1017.07 1016.91 1016.54 1016.30 1016.12 1016.09 1016.19 1016.23 1016.26 1016.41 1016.62 1016.79 1016.86
1017.91 1018.10 1018.22 1018.49 1018.57 1018.52 1018.44 1018.37 1018.27 1018.40 1018.85 1019.18 1019.12 1019.21 1019.41 1019.57 1019.46 1019.80 1019.36 1017.83 1017.10 1017.08 1017.08 1016.97 1016.48 1016.84 1016.83 1017.05 1017.34 1017.19 1017.15 1016.95 1016.77 1016.60 1016.47 1016.01 1016.03 1015.90 1016.04 1016.20 1016.40 1016.61 1016.77
1018.21 1018.14 1018.14 1018.26 1018.29 1018.45 1018.42 1018.19 1018.21 1018.42 1018.71 1018.79 1018.86 1019.05 1019.21 1019.24 1019.36 1019.72 1019.86 1018.97 1018.48 1017.40 1017.10 1016.78 1016.83 1016.78 1016.88 1017.02 1017.13 1017.23 1017.28 1017.16 1016.87 1016.86 1016.80 1016.47 1016.19 1015.88 1015.79 1015.80 1016.08 1016.26 1016.48
1017.97 1017.76 1017.85 1017.98 1018.01 1017.98 1018.05 1018.01 1018.28 1018.38 1018.63 1018.75 1018.81 1018.95 1018.83 1018.81 1018.91 1019.30 1019.46 1019.07 1018.74 1017.91 1017.51 1017.18 1017.03 1017.09 1017.11 1017.36 1017.39 1017.41 1017.47 1017.38 1017.31 1017.27 1017.17 1016.76 1016.46 1016.27 1015.98 1015.68 1015.64 1015.79 1016.07
1017.41 1017.30 1017.52 1017.65 1017.67 1017.77 1017.75 1017.90 1018.20 1018.35 1018.49 1018.46 1018.59 1018.65 1018.42 1018.34 1018.58 1018.70 1018.76 1018.84 1018.63 1018.37 1017.95 1017.50 1017.25 1017.15 1017.39 1017.56 1017.72 1017.77 1017.85 1017.80 1017.60 1017.51 1017.42 1017.11 1016.63 1016.16 1015.82 1015.62 1015.61 1015.59 1015.82
1017.18 1017.26 1017.16 1017.47 1017.49 1017.56 1017.52 1017.70 1018.16 1018.35 1018.34 1018.28 1018.26 1018.23 1018.29 1018.19 1018.37 1018.35 1018.35 1018.23 1018.31 1018.67 1018.33 1017.59 1017.47 1017.10 1017.26 1017.52 1017.61 1017.79 1017.82 1018.01 1017.58 1017.41 1017.30 1017.22 1016.95 1016.45 1016.07 1015.70 1015.54 1015.50 1015.65
1017.03 1017.27 1017.26 1017.40 1017.43 1017.30 1017.33 1017.63 1017.89 1018.10 1018.23 1018.19 1017.99 1018.03 1018.32 1018.35 1018.25 1018.11 1017.99 1017.92 1018.02 1018.22 1018.32 1017.68 1017.45 1017.23 1017.14 1017.43 1017.70 1017.89 1017.94 1018.01 1017.77 1017.65 1017.52 1017.39 1017.22 1016.79 1016.49 1016.32 1016.09 1016.25 1016.33
1016.91 1017.24 1017.24 1017.42 1017.39 1017.39 1017.42 1017.57 1017.77 1017.92 1018.07 1018.05 1018.06 1018.14 1018.11 1018.09 1017.98 1017.84 1017.73 1017.75 1017.82 1017.99 1018.23 1017.54 1017.33 1017.31 1017.33 1017.60 1017.86 1017.92 1018.08 1018.03 1018.15 1018.15 1017.91 1017.76 1017.68 1017.42 1017.12 1016.80 1016.77 1016.54 1016.57
1016.69 1016.93 1017.11 1017.20 1017.25 1017.27 1017.27 1017.35 1017.53 1017.67 1017.82 1018.04 1018.06 1018.12 1018.06 1017.92 1017.76 1017.69 1017.70 1017.68 1017.75 1017.78 1017.96 1017.81 1017.40 1017.26 1017.21 1017.49 1017.67 1018.12 1018.06 1017.97 1018.16 1018.46 1018.36 1018.35 1018.14 1017.97 1017.73 1017.40 1017.15 1017.13 1017.13
1016.40 1016.65 1016.84 1017.04 1017.03 1017.04 1017.15 1017.23 1017.27 1017.44 1017.49 1017.61 1017.65 1017.67 1017.60 1017.65 1017.66 1017.64 1017.55 1017.59 1017.61 1017.55 1017.64 1017.66 1017.52 1017.19 1017.31 1017.55 1017.89 1018.00 1018.13 1018.27 1018.33 1018.62 1018.51 1018.58 1018.49 1018.23 1018.23 1017.97 1017.59 1017.51 1017.43
1015.89 1016.02 1016.14 1016.33 1016.53 1016.62 1016.78 1016.93 1016.94 1016.96 1017.03 1017.16 1017.18 1017.25 1017.26 1017.34 1017.44 1017.41 1017.41 1017.42 1017.41 1017.40 1017.47 1017.53 1017.61 1017.45 1017.33 1017.35 1017.55 1017.93 1018.27 1018.38 1018.46 1018.21 1018.50 1018.79 1018.94 1018.79 1018.62 1018.67 1018.40 1018.20 1018.15
1015.36 1015.43 1015.60 1015.76 1015.95 1016.18 1016.27 1016.43 1016.56 1016.65 1016.77 1016.84 1016.94 1016.99 1017.01 1017.10 1017.22 1017.23 1017.36 1017.27 1017.39 1017.35 1017.30 1017.32 1017.42 1017.41 1017.29 1017.31 1017.21 1017.26 1017.72 1018.01 1018.25 1018.43 1018.73 1018.85 1018.92 1019.11 1018.92 1018.76 1018.71 1018.63 1018.69
1015.00 1015.21 1015.42 1015.52 1015.69 1015.74 1015.86 1016.03 1016.37 1016.63 1016.70 1016.77 1016.87 1016.80 1016.94 1017.02 1017.14 1017.23 1017.23 1017.25 1017.24 1017.36 1017.35 1017.32 1017.24 1017.25 1017.09 1016.93 1016.89 1017.03 1017.32 1017.68 1018.05 1017.74 1018.40 1018.75 1018.80 1018.99 1018.91 1018.86 1018.98 1019.08 1019.22
1014.75 1014.96 1015.09 1015.37 1015.65 1015.90 1016.04 1016.16 1016.51 1016.72 1016.90 1016.89 1017.01 1017.06 1016.97 1017.20 1017.28 1017.38 1017.34 1017.32 1017.29 1017.18 1017.12 1017.05 1017.06 1017.20 1017.20 1016.99 1016.94 1016.99 1017.16 1017.31 1017.29 1017.47 1017.95 1018.44 1018.73 1019.08 1019.21 1019.19 1019.31 1019.57 1019.63
1014.47 1015.10 1015.32 1015.57 1015.98 1016.52 1016.53 1016.59 1016.69 1016.79 1017.03 1017.29 1017.40 1017.47 1017.60 1017.78 1017.77 1017.61 1017.48 1017.52 1017.67 1017.67 1017.49 1017.37 1017.31 1017.68 1017.71 1017.30 1017.07 1016.81 1016.90 1017.18 1017.65 1017.92 1018.00 1018.45 1018.83 1019.09 1019.40 1019.59 1019.82 1020.06 1020.11
1014.67 1015.17 1015.62 1016.07 1016.42 1016.84 1016.72 1016.62 1016.73 1016.83 1017.30 1017.78 1017.99 1018.04 1018.11 1018.12 1018.02 1017.67 1017.62 1017.73 1017.99 1018.19 1018.05 1018.06 1018.17 1018.20 1018.07 1017.68 1017.19 1017.13 1017.28 1017.44 1017.81 1018.19 1018.19 1018.13 1018.69 1019.28 1019.52 1019.78 1019.95 1020.46 1020.70
1015.29 1015.82 1016.27 1016.75 1016.78 1017.05 1017.03 1016.91 1016.70 1016.89 1017.53 1018.01 1018.30 1018.51 1018.65 1018.63 1018.29 1017.97 1017.77 1018.03 1018.27 1018.46 1018.42 1018.41 1018.66 1018.65 1018.72 1018.56 1018.28 1018.36 1018.31 1018.13 1018.13 1018.60 1018.80 1018.75 1019.00 1019.33 1019.84 1020.13 1020.16 1020.20 1020.74
Wind_Speed
2 1 2 3 2 3 3 3 4 3 4 5 4 5 5 5 4 1 0 4 5 8 14 18 17 32 25 24 13 8 6 4 4 5 5 5 5 3 3 4 5 6 6
2 3 2 1 3 1 1 1 3 4 3 3 5 3 2 1 2 2 1 2 8 15 11 7 8 14 17 19 10 6 5 4 4 6 4 4 3 3 5 6 7 4 4
5 5 3 2 1 1 2 3 4 1 3 1 5 4 4 5 2 2 3 4 5 11 9 8 4 1 11 19 9 6 5 5 4 4 4 3 3 3 6 8 7 8 4
5 5 4 4 2 2 3 4 3 3 3 3 4 3 4 5 4 1 1 3 5 2 3 6 10 9 10 16 7 7 5 4 3 2 3 4 3 5 7 7 8 9 8
2 2 3 2 2 2 3 1 1 2 2 3 4 3 4 4 2 1 4 6 4 1 5 2 8 10 13 15 7 7 3 3 2 1 1 4 5 5 7 9 9 8 9
5 3 4 3 3 2 1 3 4 4 3 3 3 2 2 4 0 4 4 4 4 5 4 6 6 5 10 14 7 7 5 3 1 2 2 3 7 7 7 8 9 9 9
5 5 3 3 4 3 3 3 2 4 5 4 2 3 2 4 1 4 4 4 4 4 6 6 4 1 2 10 5 8 7 7 3 3 5 5 4 7 7 7 7 8 8
5 5 4 2 2 2 3 2 3 1 2 3 2 2 4 4 4 1 3 4 5 3 4 5 6 2 1 0 2 6 7 7 3 3 4 4 5 6 6 6 7 8 7
4 3 5 5 3 2 2 1 2 3 3 3 3 3 2 1 3 0 3 4 4 1 3 4 6 3 4 3 3 4 8 7 5 2 2 4 5 5 6 7 6 7 9
4 5 4 4 3 2 3 2 2 2 4 3 1 3 2 3 2 5 1 4 2 4 3 3 3 2 4 1 2 5 5 5 7 7 4 2 5 7 7 7 7 7 7
3 4 4 5 3 3 3 4 3 3 3 3 2 2 0 0 2 1 4 7 2 2 1 4 4 4 4 1 1 1 3 5 7 6 4 4 5 3 8 9 8 9 9
4 6 5 5 4 4 4 2 2 3 2 1 1 2 2 2 1 1 2 3 2 4 3 3 1 4 3 2 2 3 3 4 6 5 4 5 4 3 2 5 10 10 9
3 5 5 6 4 3 4 2 2 1 3 3 3 3 3 2 2 2 2 3 2 3 2 2 0 2 3 2 1 2 4 5 5 4 5 6 6 7 5 3 5 11 11
4 3 5 5 5 6 4 3 1 3 3 2 4 3 2 2 3 3 3 3 2 2 2 3 1 2 3 1 1 3 4 4 5 5 6 6 6 7 6 5 7 5 10
3 5 6 6 5 4 4 3 3 3 3 3 4 3 1 1 2 3 3 2 4 1 3 3 2 1 3 3 2 2 2 2 5 4 4 5 7 8 9 11 3 7 5
3 4 4 5 5 5 4 3 2 3 2 2 2 2 1 2 3 3 3 2 1 3 2 4 3 2 4 2 3 2 2 2 6 5 5 6 6 7 8 9 11 10 9
6 6 5 5 5 5 4 4 4 3 4 4 3 3 5 3 3 3 2 1 1 2 3 3 1 3 3 3 3 2 1 3 3 6 6 7 7 7 8 9 10 11 10
5 6 6 6 6 5 4 5 5 3 4 4 5 3 5 3 4 1 2 3 2 2 2 3 2 2 3 2 3 2 2 2 3 6 8 8 8 8 8 9 10 10 9
7 6 6 6 6 6 6 5 5 5 5 5 5 4 5 3 4 2 2 3 3 2 3 3 3 1 1 2 1 1 1 2 3 5 7 6 6 7 6 7 9 9 9
8 7 7 7 6 6 5 5 5 5 4 4 5 5 5 4 5 4 4 4 4 3 2 2 2 2 1 1 2 2 2 1 2 2 5 4 4 7 8 7 8 9 8
8 7 6 6 6 5 4 6 5 4 4 5 5 5 5 5 5 5 2 3 3 2 2 3 3 3 2 2 4 3 4 3 4 3 2 2 1 1 2 6 7 8 8
7 6 6 6 6 4 7 7 5 2 4 4 5 5 4 2 2 3 6 4 3 3 3 2 2 3 3 3 2 3 3 3 3 4 4 3 2 0 1 2 7 8 7
5 7 6 6 5 2 4 3 1 3 4 2 2 4 0 3 4 4 4 0 5 6 2 3 3 2 2 1 1 1 3 1 1 2 3 3 3 2 1 4 7 7 7
6 4 3 3 5 4 6 5 3 2 2 4 4 5 4 4 5 5 3 3 5 6 6 4 5 4 3 5 4 1 1 4 4 3 2 1 1 2 2 3 7 8 7
6 6 4 4 4 3 7 6 4 3 4 5 5 6 5 5 11 11 2 4 5 5 8 12 11 10 12 17 14 0 3 0 1 1 3 2 1 2 2 2 4 10 11
6 5 7 5 7 5 8 5 2 3 5 4 4 5 10 7 10 12 4 3 4 3 4 5 6 9 11 12 17 10 5 3 1 1 3 2 2 3 2 2 2 5 3
Wind_Direction
119 279 263 249 266 332 316 309 288 278 278 283 272 245 229 233 228 174 65 0 327 56 71 60 6 298 317 316 312 313 335 16 5 36 38 5 26 62 92 108 78 91 68
159 141 113 95 74 34 352 3 6 5 344 314 336 0 264 316 89 102 194 201 128 122 115 116 199 266 312 320 319 322 346 353 6 33 48 35 36 54 104 90 87 104 58
158 145 151 121 100 358 29 36 33 6 79 66 57 21 83 104 86 187 220 174 174 149 149 156 165 274 330 326 337 327 335 345 12 31 69 64 82 59 78 93 104 114 104
170 151 159 126 167 127 70 38 2 40 17 77 100 56 45 67 67 55 241 243 237 20 269 85 82 49 356 336 347 334 317 336 358 10 84 95 109 100 94 96 88 92 89
183 144 104 107 162 82 55 122 5 69 54 72 109 98 94 77 37 346 286 266 290 349 239 139 71 27 344 333 333 313 309 312 337 299 102 127 140 121 109 105 98 90 79
192 149 122 125 146 141 357 245 98 32 43 19 60 84 75 112 295 290 260 303 315 318 294 334 40 4 330 319 312 304 309 293 269 237 203 166 151 141 128 118 113 108 98
173 150 118 141 165 179 157 261 73 71 25 22 34 325 15 310 200 263 255 279 326 331 332 4 342 285 310 326 323 313 322 297 227 208 196 189 171 142 134 117 107 104 102
184 165 159 152 189 120 89 71 81 83 63 13 126 50 360 335 291 181 295 292 258 300 329 313 281 61 266 55 289 313 345 313 287 205 204 202 180 153 144 134 133 126 116
184 165 172 183 209 76 102 187 109 114 129 14 355 132 62 299 337 259 234 252 243 328 296 305 296 65 37 41 311 350 3 341 8 354 275 199 200 175 156 162 160 152 145
182 177 171 185 189 143 220 212 162 147 101 186 300 64 47 120 105 337 300 214 192 234 251 267 310 105 113 123 339 33 2 9 34 24 4 300 198 188 186 182 180 175 167
215 214 212 210 200 197 216 215 159 142 169 150 179 120 25 194 100 106 300 325 20 170 168 235 193 178 149 353 281 17 21 31 39 42 26 63 49 207 193 196 196 192 185
215 220 217 217 198 225 224 216 149 175 192 220 138 165 179 165 132 173 276 292 275 315 18 7 101 147 144 150 172 73 46 54 47 35 23 30 56 80 89 209 202 206 200
226 233 209 215 215 233 241 221 182 217 208 198 179 220 212 189 151 182 182 278 273 305 337 352 56 138 108 125 152 95 48 49 43 25 26 28 28 22 348 257 208 207 210
216 234 208 211 212 215 214 238 241 246 233 218 202 233 231 229 202 200 201 198 332 312 331 264 231 257 134 152 142 75 41 26 46 39 23 19 26 28 13 295 232 207 212
209 215 206 191 205 222 207 204 221 246 239 227 231 218 172 291 228 240 228 206 154 309 291 284 256 204 156 143 190 128 96 28 69 44 40 36 29 31 31 30 151 172 149
190 198 198 211 231 232 228 226 251 249 220 249 276 284 226 240 250 233 239 236 164 165 245 212 247 184 196 153 159 155 138 91 61 57 41 34 38 52 56 62 72 63 61
194 208 209 239 235 235 235 221 230 235 243 283 285 263 275 264 274 266 234 246 227 163 225 303 233 213 162 159 164 153 115 77 42 36 46 46 40 46 61 73 72 80 77
199 207 211 224 226 236 235 226 232 230 232 245 257 249 264 270 286 275 260 255 231 214 196 248 282 241 186 166 167 136 237 88 71 44 46 43 55 54 59 71 77 73 69
201 211 215 223 227 222 223 225 220 225 230 243 251 251 266 257 279 263 248 266 267 254 219 214 262 245 124 124 147 156 148 63 67 96 80 65 73 79 65 70 78 75 74
211 208 207 213 223 231 234 240 234 240 251 256 261 257 262 261 263 274 259 249 251 255 255 247 260 283 223 176 149 168 228 205 204 207 82 96 72 74 78 64 65 71 70
214 215 212 218 216 216 222 232 238 243 259 266 259 264 251 254 274 288 281 280 270 253 235 222 219 205 224 194 215 181 199 155 223 198 173 191 134 72 48 61 71 71 75
214 201 214 214 220 230 230 233 219 234 281 268 262 253 233 105 353 8 352 285 253 249 258 230 231 217 235 223 208 199 182 169 216 175 160 218 169 175 55 67 74 77 82
196 212 210 198 215 32 15 118 277 188 238 255 285 281 247 60 4 334 317 67 60 30 335 251 243 217 272 282 333 224 220 226 196 116 125 171 167 138 61 72 78 83 79
171 188 157 121 103 65 33 39 350 202 91 51 45 31 30 359 355 329 316 79 46 22 5 18 51 48 359 313 260 27 29 96 86 63 38 189 123 109 83 62 61 58 58
110 99 100 97 112 71 9 7 348 131 97 63 45 37 25 12 353 340 253 125 93 80 60 68 66 49 34 25 24 32 33 188 94 40 13 108 84 84 47 69 71 45 26
107 107 81 68 66 60 10 351 34 131 114 100 73 55 45 39 22 11 73 108 101 111 82 49 30 26 26 24 30 33 356 59 107 60 13 356 139 144 133 55 101 125 90